Change the Weather History Date:

Friday, November 2, 2012

  Actual Average Record
Temperature  
Mean Temperature 42 °F 39 °F  
Max Temperature 57 °F 53 °F 77 °F (1965)
Min Temperature 27 °F 25 °F -5 °F (1995)
Degree Days  
Heating Degree Days 23 26  
Month to date heating degree days 39 51  
Since 1 July heating degree days 813 959  
Cooling Degree Days 0 0  
Month to date cooling degree days 0 0  
Year to date cooling degree days 664 419  
Moisture  
Dew Point 32 °F    
Average Humidity 64    
Maximum Humidity 92    
Minimum Humidity 35    
Precipitation  
Precipitation 0.00 in 0.02 in 0.70 in (1987)
Month to date precipitation 0.00 0.05  
Year to date precipitation 7.94 12.94  
Sea Level Pressure  
Sea Level Pressure 30.08 in    
Wind  
Wind Speed 8 mph (WNW)    
Max Wind Speed 30 mph    
Max Gust Speed 36 mph    
Visibility 10 miles    
Events      
T = Trace of Precipitation, MM = Missing Value Source: NWS Daily Summary

Daily Weather History Graph

Daily Weather History Graph

Search for Another Location

Airport or City:

Trip Planner

Search our weather history database for the weather conditions in past years. The results will help you decide how hot, cold, wet, or windy it might be!

Date:

Astronomy

Nov. 02, 2012 Rise Set
Actual Time 7:47 AM MDT 5:54 PM MDT
Civil Twilight 7:17 AM MDT 6:24 PM MDT
Nautical Twilight 6:42 AM MDT 6:59 PM MDT
Astronomical Twilight 6:08 AM MDT 7:33 PM MDT
Moon 8:39 PM MDT (11/2) 11:15 AM MDT (11/2)
Length of Visible Light 11h 07m
Length of Day
10h 06m
Waning Gibbous, 87% of the Moon is Illuminated
Nov 2
Waning Gibbous
Nov 6
Last Quarter
Nov 13
New
Nov 20
First Quarter
Nov 28
Full

Hourly Weather History & Observations

Time (MDT) Temp. Windchill Dew Point Humidity Pressure Visibility Wind Dir Wind Speed Gust Speed Precip Events Conditions
12:53 AM 44.1 °F 36.2 °F 37.9 °F 79% 29.94 in 10.0 mi NW 18.4 mph 23.0 mph N/A   Overcast
1:53 AM 42.1 °F 40.2 °F 37.0 °F 82% 29.98 in 10.0 mi Variable 3.5 mph - N/A   Partly Cloudy
2:53 AM 41.0 °F 39.0 °F 37.0 °F 86% 29.99 in 10.0 mi NNE 3.5 mph - N/A   Partly Cloudy
3:53 AM 37.9 °F 33.5 °F 36.0 °F 93% 30.01 in 10.0 mi SW 5.8 mph - N/A   Mostly Cloudy
4:53 AM 36.0 °F 31.1 °F 34.0 °F 93% 30.01 in 10.0 mi SE 5.8 mph - N/A   Clear
5:53 AM 32.0 °F 24.8 °F 30.9 °F 96% 30.01 in 10.0 mi WNW 8.1 mph - N/A   Clear
6:53 AM 30.9 °F - 28.9 °F 92% 30.04 in 10.0 mi Calm Calm - N/A   Partly Cloudy
7:53 AM 36.0 °F 29.0 °F 30.9 °F 82% 30.04 in 10.0 mi WNW 9.2 mph - N/A   Clear
8:53 AM 44.1 °F 39.0 °F 34.0 °F 68% 30.06 in 10.0 mi NW 9.2 mph - N/A   Clear
9:53 AM 48.9 °F - 35.1 °F 59% 30.06 in 10.0 mi NW 5.8 mph - N/A   Mostly Cloudy
10:53 AM 50.0 °F - 35.1 °F 57% 30.04 in 10.0 mi WNW 8.1 mph - N/A   Overcast
11:53 AM 52.0 °F - 33.1 °F 49% 30.06 in 10.0 mi NNW 10.4 mph - N/A   Overcast
12:53 PM 53.1 °F - 30.9 °F 43% 30.06 in 10.0 mi NW 16.1 mph 23.0 mph N/A   Clear
1:53 PM 55.9 °F - 30.0 °F 37% 30.05 in 10.0 mi NW 27.6 mph 33.4 mph N/A   Clear
2:53 PM 55.9 °F - 28.9 °F 36% 30.04 in 10.0 mi NNW 27.6 mph 33.4 mph N/A   Clear
3:53 PM 55.9 °F - 30.0 °F 37% 30.07 in 10.0 mi NNW 17.3 mph 32.2 mph N/A   Clear
4:53 PM 54.0 °F - 28.9 °F 38% 30.09 in 10.0 mi NW 20.7 mph - N/A   Clear
5:53 PM 45.0 °F 42.6 °F 30.9 °F 58% 30.14 in 10.0 mi NNW 4.6 mph - N/A   Clear
6:53 PM 39.0 °F 35.7 °F 30.0 °F 70% 30.20 in 10.0 mi SW 4.6 mph - N/A   Clear
7:53 PM 37.9 °F 32.7 °F 30.9 °F 76% 30.20 in 10.0 mi West 6.9 mph - N/A   Clear
8:53 PM 33.1 °F - 28.9 °F 85% 30.19 in 10.0 mi Calm Calm - N/A   Clear
9:53 PM 30.9 °F - 27.0 °F 85% 30.19 in 10.0 mi Calm Calm - N/A   Scattered Clouds
10:53 PM 28.9 °F - 26.1 °F 89% 30.20 in 10.0 mi Calm Calm - N/A   Clear
11:53 PM 32.0 °F 28.7 °F 28.9 °F 88% 30.18 in 10.0 mi SSW 3.5 mph - N/A   Clear